EHI
0 0 0 0 0 0 0 0 0 0 0 0 0 0 0 0 0 0 0 0 0 0 0 0 0 0 0 0 0 0 0 0 0 0 0 0 0 0 0 0 0 0 0 0
0 0 0 0 0 0 0 0 0 0 0 0 0 0 0 0 0 0 0 0 0 0 0 0 0 0 0 0 0 0 0 0 0 0 0 0 0 0 0 0 0 0 0 0
0 0 0 0 0 0 0 0 0 0 0 0 0 0 0 0 0 0 0 0 0 0 0 0 0 0 0 0 0 0 0 0 0 0 0 0 0 0 0 0 0 0 0 0
0 0 0 0 0 0 0 0 0 0 0 0 0 0 0 0 0 0 0 0 0 0 0 0 0 0 0 0 0 0 0 0 0 0 0 0 0 0 0 0 0 0 0 0
0 0 0 0 0 0 0 0 0 0 0 0 0 0 0 0 0 0 0 0 0 0 0 0 0 0 0 0 0 0 0 0 0 0 0 0 0 0 0 0 0 0 0 0
0 0 0 0 0 0 0 0 0 0 0 0 0 0 0 0 0 0 0 0 0 0 0 0 0 0 0 0 0 0 0 0 0 0 0 0 0 0 0 0 0 0 0 0
0 0 0 0 0 0 0 0 0 0 0 0 0 0 0 0 0 0 0 0 0 0 0 0 0 0 0 0 0 0 0 0 0 0 0 0 0 0 0 0 0 0 0 0
0 0 0 0 0 0 0 0 0 0 0 0 0 0 0 0 0 0 0 0 0 0 0 0 0 0 0 0 0 0 0 0 0 0 0 0 0 0 0 0 0 0 0 0
0 0 0 0 0 0 0 0 0 0 0 0 0 0 0 0 0 0 0 0 0 0 0 0 0 0 0 0 0 0 0 0 0 0 0 0 0 0 0 0 0 0 0 0
0 0 0 0 0 0 0 0 0 0 0 0 0 0 0 0 0 0 0 0 0 0 0 0 0 0 0 0 0 0 0 0 0 0 0 0 0 0 0 0 0 0 0 0
0 0 0 0 0 0 0 0 0 0 0 0 0 0 0 0 0 0 0 0 0 0 0 0 0 0 0 0 0 0 0 0 0 0 0 0 0 0 0 0 0 0 0 0
0 0 0 0 0 0 0 0 0 0 0 0 0 0 0 0 0 0 0 0 0 0 0 0 0 0 0 0 0 0 0 0 0 0 0 0 0 0 0 0 0 0 0 0
0 0 0 0 0 0 0 0 0 0 0 0 0 0 0 0 0 0 0 0 0 0 0 0 0 0 0 0 0 0 0 0 0 0 0 0 0 0 0 0 0 0 0 0
0 0 0 0 0 0 0 0 0 0 0 0 0 0 0 0 0 0 0 0 0 0 0 0 0 0 0 0 0 0 0 0 0 0 0 0 0 0 0 0 0 0 0 0
0 0 0 0 0 0 0 0 0 0 0 0 0 0 0 0 0 0 0 0 0 0 0 0 0 0 0 0 0 0 0 0 0 0 0 0 0 0 0 0 0 0 0 0
0 0 0 0 0 0 0 0 0 0 0 0 0 0 0 0 0 0 0 0 0 0 0 0 0 0 0 0 0 0 0 0 0 0 0 0 0 0 0 0 0 0 0 0
0 0 0 0 0 0 0 0 0 0 0 0 0 0 0 0 0 0 0 0 0 0 0 0 0 0 0 0 0 0 0 0 0 0 0 0 0 0 0 0 0 0 0 0
0 0 0 0 0 0 0 0 0 0 0 0 0 0 0 0 0 0 0 0 0 0 0 0 0 0 0 0 0 0 0 0 0 0 0 0 0 0 0 0 0 0 0 0
0 0 0 0 0 0 0 0 0 0 0 0 0 0 0 0 0 0 0 0 0 0 0 0 0 0 0 0 0 0 0 0 0 0 0 0 0 0 0 0 0 0 0 0
0 0 0 0 0 0 0 0 0 0 0 0 0 0 0 0 0 0 0 0 0 0 0 0 0 0 0 0 0 0 0 0 0 0 0 0 0 0 0 0 0 0 0 0
0 0 0 0 0 0 0 0 0 0 0 0 0 0 0 0 0 0 0 0 0 0 0 0 0 0 0 0 0 0 0 0 0 0 0 0 0 0 0 0 0 0 0 0
0 0 0 0 0 0 0 0 0 0 0 0 0 0 0 0 0 0 0 0 0 0 0 0 0 0 0 0 0 0 0 0 0 0 0 0 0 0 0 0 0 0 0 0
0 0 0 0 0 0 0 0 0 0 0 0 0 0 0 0 0 0 0 0 0 0 0 0 0 0 0 0 0 0 0 0 0 0 0 0 0 0 0 0 0 0 0 0
0 0 0 0 0 0 0 0 0 0 0 0 0 0 0 0 0 0 0 0 0 0 0 0 0 0 0 0 0 0 0 0 0 0 0 0 0 0 0 0 0 0 0 0
0 0 0 0 0 0 0 0 0 0 0 0 0 0 0 0 0 0 0 0 0 0 0 0 0 0 0 0 0 0 0 0 0 0 0 0 0 0 0 0 0 0 0 0
0 0 0 0 0 0 0 0 0 0 0 0 0 0 0 0 0 0 0 0 0 0 0 0 0 0 0 0 0 0 0 0 0 0 0 0 0 0 0 0 0 0 0 0
0 0 0 0 0 0 0 0 0 0 0 0 0 0 0 0 0 0 0 0 0 0 0 0 0 0 0 0 0 0 0 0 0 0 0 0 0 0 0 0 0 0 0 0
Wind_Speed
6 5 4 6 8 10 12 11 10 10 11 14 11 11 10 9 8 7 7 7 7 7 6 6 5 4 3 2 2 1 1 1 1 1 1 1 1 1 1 1 0 0 0 0
4 3 4 7 10 11 12 11 14 14 16 12 10 8 8 8 7 7 7 7 7 7 7 6 5 4 3 2 2 1 1 1 1 1 1 1 1 1 1 1 1 1 0 0
3 2 4 7 7 10 8 9 9 11 10 8 8 9 8 8 8 8 8 8 8 8 7 6 5 4 4 3 2 1 1 1 1 1 1 1 1 1 1 1 1 1 1 1
2 2 6 1 2 5 7 8 9 11 11 9 9 9 8 7 7 8 7 7 8 7 7 6 5 4 4 3 2 1 1 1 1 1 1 1 1 1 1 1 1 1 1 1
2 4 7 3 2 3 4 6 5 9 11 10 8 7 6 4 4 5 6 7 7 7 6 5 5 4 3 3 2 2 2 2 1 1 1 1 1 1 1 1 1 1 1 1
2 4 5 1 2 1 2 5 1 3 6 6 5 5 5 5 5 6 6 6 6 6 5 4 4 3 3 3 3 2 2 2 1 1 0 0 1 1 0 0 0 1 1 1
5 5 6 1 1 3 3 3 3 3 5 4 4 6 7 6 6 6 6 6 5 4 4 4 4 3 2 3 3 3 2 2 1 1 0 0 0 0 0 1 1 1 1 1
5 5 6 3 4 5 3 3 3 4 4 5 6 6 6 6 6 6 5 5 5 3 4 4 3 2 2 3 3 2 2 2 2 1 1 0 0 0 1 1 1 1 1 1
6 5 2 4 4 3 3 4 4 4 5 5 5 5 5 5 5 5 5 4 4 3 3 4 3 2 2 3 2 2 2 2 2 2 1 0 0 0 1 1 1 1 1 1
5 8 5 5 6 6 5 6 6 6 5 5 5 5 5 5 5 4 4 4 3 3 3 3 3 3 2 2 2 1 1 1 1 1 1 1 0 0 0 1 1 1 0 0
7 7 6 5 6 6 5 5 5 5 4 4 5 5 5 4 4 4 4 3 3 2 3 3 3 3 3 2 1 1 1 1 1 1 1 0 0 1 0 0 0 1 1 1
6 5 5 4 3 3 3 4 5 4 4 4 4 5 4 3 3 3 3 3 3 3 3 3 3 3 3 2 1 1 1 1 1 1 1 0 1 1 2 1 1 1 1 2
5 3 4 5 3 3 4 4 4 4 4 4 4 3 3 3 3 2 2 2 2 2 3 3 2 3 3 2 2 1 1 1 1 1 0 0 0 0 1 2 2 2 1 1
5 3 4 4 4 4 3 3 3 3 3 3 3 3 2 2 2 2 3 3 2 2 2 2 2 2 3 2 1 1 1 1 1 1 0 0 0 0 0 0 1 1 1 2
5 5 5 3 2 2 1 1 2 2 2 3 2 2 2 2 2 3 3 2 2 1 2 1 2 2 2 2 1 1 1 1 1 1 0 0 0 0 0 0 1 1 1 1
3 3 3 4 4 3 2 2 3 3 3 3 3 2 2 2 2 2 2 1 1 2 2 2 2 2 2 1 1 1 1 1 1 1 0 0 0 0 0 0 0 1 1 1
3 3 4 4 4 4 4 3 3 3 3 3 3 2 2 1 2 2 2 2 2 2 2 2 2 2 2 1 1 0 0 0 1 0 0 0 0 1 1 1 1 1 1 1
5 4 4 4 4 4 3 3 3 3 3 3 2 1 1 1 2 2 2 2 2 2 2 2 2 2 2 1 1 0 0 0 0 0 0 1 1 1 1 1 1 1 1 1
3 3 3 3 3 3 3 2 2 3 2 2 2 2 2 2 2 2 2 1 1 2 2 2 3 2 1 1 1 0 0 0 0 0 0 1 1 1 0 1 1 1 1 1
2 2 2 1 1 2 2 2 2 2 2 2 2 1 2 2 2 1 1 1 2 2 2 2 2 1 1 1 1 0 0 0 0 0 1 0 1 1 1 1 1 1 1 1
2 2 1 1 1 1 2 2 2 2 2 2 2 2 2 2 1 1 1 1 2 1 1 2 1 1 1 1 1 1 0 0 0 0 1 1 1 1 1 1 1 1 1 1
2 2 2 2 2 1 1 1 2 2 2 2 2 2 2 2 1 1 2 2 2 2 1 1 1 1 2 2 1 1 1 1 1 1 1 1 1 1 1 1 1 1 1 1
2 2 2 2 2 1 1 1 2 2 2 2 2 2 2 2 1 1 1 1 1 2 1 1 1 2 2 1 1 0 1 1 1 1 1 1 1 1 1 1 1 1 1 1
2 2 2 1 1 1 2 2 2 1 2 2 2 2 2 1 1 1 1 1 1 2 1 1 1 1 1 1 0 0 1 1 1 1 1 1 1 1 1 1 1 1 1 1
2 2 2 2 2 2 2 2 1 1 1 1 1 1 1 1 1 1 1 1 1 1 1 1 1 1 1 0 0 1 1 1 1 1 1 1 1 1 1 1 1 1 1 1
2 2 2 3 2 2 2 2 2 1 1 1 1 1 1 0 1 1 0 1 1 1 1 1 1 1 0 0 0 1 1 1 1 1 1 1 1 1 1 1 1 1 1 1
2 2 1 2 2 2 2 2 2 2 2 2 1 1 1 0 0 0 0 0 0 1 1 1 1 1 1 1 1 1 1 1 1 1 1 1 1 1 1 1 1 1 1 1
Wind_Direction
270 280 260 241 230 213 217 230 245 264 270 283 302 309 311 314 318 320 326 330 331 329 328 327 329 326 317 294 286 279 277 281 313 346 346 340 358 2 3 8 3 49 76 303
264 260 264 262 247 229 232 240 250 267 276 285 301 308 310 314 319 321 325 330 331 331 329 327 327 325 322 315 308 305 318 318 328 336 357 13 7 4 18 27 25 48 93 48
262 302 279 263 237 211 216 223 231 246 264 296 300 303 308 313 316 317 323 327 328 327 326 325 323 325 329 331 344 9 19 10 18 35 25 6 1 14 24 24 26 45 46 40
284 278 248 301 83 205 222 242 236 257 277 292 298 303 302 301 304 312 320 323 324 326 327 327 328 335 339 341 349 12 9 6 28 45 24 3 6 7 6 12 19 38 45 42
244 265 275 277 199 191 221 269 245 255 277 293 307 296 293 306 306 308 316 319 319 322 324 325 331 340 350 348 356 5 355 351 4 39 12 354 354 354 6 26 20 32 37 46
217 251 260 336 91 161 213 272 237 261 284 300 311 298 325 348 325 320 323 325 325 326 329 330 337 347 358 350 353 349 342 339 344 346 306 304 319 342 6 60 74 51 50 37
221 245 269 340 130 175 230 316 347 280 286 292 276 287 315 318 316 318 323 325 327 332 334 335 341 355 1 352 344 336 339 345 349 342 327 311 348 353 87 91 77 64 53 40
197 221 254 128 152 209 272 334 297 291 289 284 281 294 305 310 315 320 324 329 334 340 342 343 348 2 -0 346 340 346 355 2 360 360 359 7 69 54 89 103 92 74 56 35
208 230 344 176 221 266 305 281 288 291 292 285 284 291 301 308 312 317 323 327 335 342 344 345 351 0 355 339 350 2 6 5 5 9 7 12 58 82 87 95 101 87 75 39
251 263 264 248 258 270 268 270 283 288 287 279 279 290 299 305 311 318 323 328 333 340 345 342 349 355 343 335 352 14 8 354 4 14 16 31 21 41 107 124 136 148 170 329
251 274 283 256 247 260 272 277 281 288 282 275 278 287 294 302 309 314 323 330 333 330 331 332 341 349 345 345 14 32 10 351 357 355 352 35 46 24 339 282 243 217 254 274
240 245 242 270 270 243 253 273 281 289 291 288 277 282 291 297 304 312 316 323 328 326 326 329 339 343 350 358 6 17 357 340 333 320 319 28 84 61 46 46 22 330 310 294
259 276 265 284 282 255 260 276 284 283 287 297 294 281 285 294 308 312 308 310 308 310 315 322 337 343 347 355 358 352 323 321 324 320 332 20 52 67 41 43 43 16 354 341
253 261 265 264 271 272 273 279 285 289 292 291 295 291 287 296 305 306 303 303 305 305 309 322 343 339 347 355 3 356 342 337 328 334 342 10 21 353 333 335 348 1 7 7
243 242 255 275 280 288 302 300 292 294 303 304 303 296 293 291 292 298 305 314 313 305 314 336 338 335 349 356 356 347 340 342 341 340 358 358 337 340 339 280 290 314 321 348
238 239 248 257 265 274 274 261 266 281 291 297 301 301 296 290 295 303 311 312 304 306 317 323 319 324 339 352 350 345 354 349 332 350 30 360 281 270 272 265 280 292 300 320
200 227 236 250 257 262 260 254 254 266 277 281 288 297 297 298 304 312 322 327 310 302 305 302 307 320 326 324 323 328 333 26 5 332 301 273 270 269 277 292 300 298 310 336
231 235 231 237 244 251 258 259 258 260 265 274 288 286 273 273 285 301 315 328 335 335 326 315 305 316 321 333 350 336 319 318 326 303 285 281 284 273 270 278 288 298 326 355
232 235 243 246 246 240 246 254 261 268 277 269 258 255 261 268 276 287 300 305 307 316 332 346 343 339 328 330 333 311 288 289 300 299 285 282 295 285 285 295 306 319 326 331
218 219 221 237 237 226 234 248 257 269 277 262 252 253 265 275 273 272 272 277 288 297 313 322 332 340 341 352 350 331 300 298 309 317 310 290 294 303 302 297 303 319 325 324
218 212 210 223 247 257 251 249 242 258 274 257 241 249 265 276 268 256 253 283 317 327 319 320 332 326 328 337 340 340 332 313 294 286 285 287 293 296 296 303 319 327 316 311
212 211 220 222 224 252 268 254 241 247 259 262 258 255 259 266 266 260 253 266 297 321 324 313 317 331 341 346 348 345 339 326 309 303 294 290 287 284 285 293 295 302 296 289
213 216 220 222 224 239 268 264 248 240 245 251 251 248 251 259 254 246 274 290 296 313 316 313 337 346 350 0 354 341 321 310 305 299 288 282 280 277 275 274 276 279 283 286
214 217 219 209 178 198 239 259 264 258 253 258 257 252 248 251 255 256 276 298 313 316 313 342 0 357 355 5 349 317 305 300 298 295 288 285 285 283 277 269 265 271 274 279
207 204 192 190 210 229 240 248 262 258 254 258 267 266 259 256 250 265 280 287 314 328 330 352 358 349 343 355 329 300 292 292 294 293 287 292 296 291 288 285 272 269 270 273
205 212 217 227 238 236 228 223 233 244 247 257 274 279 277 271 257 266 274 308 327 337 336 330 329 335 333 348 320 304 300 301 303 300 302 303 299 296 294 291 289 278 276 278
213 216 218 235 239 229 222 220 223 231 233 237 252 259 252 225 188 166 108 356 339 326 329 340 341 338 339 340 330 323 319 315 317 324 324 317 308 302 305 300 295 292 284 276